Showing default

PRATHAM, 41783

Orbit data source: Space-Track

PRATHAM, 41783 is a payload satellite owned by IITB (IN) in SSO that was launched on Mon, 26 Sep 2016 UTC via a PSLV launch vehicle from the Sirharikota (SRI). Payload-class satellites include a variety of spacecraft equipped with specific instruments for various scientific and technological missions. These include communications satellites like Starlink; space stations such as the ISS; scientific satellites like the Hubble; Earth observation satellites from companies like Planet Labs, Umbra, and HawkEye 360; GPS; miniature CubeSats for education and research; and military/defense satellites.

Loading next visibility...
Identifier
41783, 2016-059A
Orbit
SSO
Country
Flag of ININ / IND
Related business
Manufacturer
IITB
Mission
Non-operational Amateur Science
Bus & Motor
PRATHAM, Unknown motor
Mass
10 kg wet, 10 kg dry
Launch date (UTC)
2016-09-26 (9 years ago)
Launch vehicle
PSLV
Launch site
Sirharikota (SRI)
Object type
Payload
Rocket body
Debris
Shape & HBR
Box, 0.2 m
Radar Cross Section
0.189 m², Small (<0.1 m²)

Expand to show TLE details & history
Last TLE update: 8 hours ago

TLE from 8 hours ago
0 PRATHAM
1 41783U 16059A   26037.22558712  .00001307  00000-0  24020-3 0  9996
2 41783  97.8298  39.8783 0029886 276.2469  83.5332 14.66976790500313
Epoch: 2026-02-06T05:24Z
TLE epoch observation values (Epoch: 2026-02-06T05:24:50.727Z)
Latitude
Longitude
-177.69958°
Altitude
671.431 km
Speed
7.522 km/s
True Right ascension
02h 39m 30s
True Declination
0° 00' 00"
Sunlit
Object was in daylight at epoch
Visualization orbit readout
Latitude
Unknown
Longitude
Unknown
Altitude
Unknown
Speed
Unknown
Apparent Right ascension
Unknown
Apparent Declination
Unknown
Sunlit
N/A
Visualization observer readout
Local Sidereal Time
15:37:06
Azimuth
Unknown
Elevation
Unknown
Doppler factor
Unknown
Orbital elements
Apogee altitude
688.848 km
Perigee altitude
646.734 km
Semi-major axis
7,045.928 km
Eccentricity
0.00299
Inclination
97.8298°
RAAN
39.8783°
Arg. of periapsis
276.2469°
True anomaly
83.87363°
Mean anomaly
83.5332°
Eccentric anomaly
83.7034°
Mean motion
3.66974 °/min
Orbital period
98.1 mins
BSTAR
0.0002402
Loading maneuver chart data...
Computing Atmospheric mass density...
Loading historical data...
Loading historical data...
Loading historical data...
Loading historical data...
Loading historical data...
Loading historical data...
Loading historical data...

Documentation

Showing up to 5 results
|